RYR19KL GCLP-LEVC

Flight info

Callsign RYR19KL
Flight time N/A
Altitude 36000
Route KORAL UG5 SONSO DCT NIRAL/N0438F380 UN871 OSDAM UM985 BARPA DCT XAVIR DCT PIMOS DCT RIXUR DCT PEPAS DCT ARPEX DCT KOSEL DCT BUDIT DCT ETURA DCT XEBAR DCT POBOS DCT ASTRO
Aircraft B738/M-SDE3FGILRWY/SB1

Departure

Time 2026-05-05 07:40
Airport Gran Canaria Airport (GCLP)

Arrival

Time N/A
Airport Valencia Airport (LEVC)
Time Latitude Longitude Altitude Speed Heading
2026-05-05 07:09 27.93606 -15.38927 89 ft 0 kts 291°
2026-05-05 07:29 27.93602 -15.38915 87 ft 3 kts 291°
2026-05-05 07:29 27.93595 -15.38894 86 ft 3 kts 291°
2026-05-05 07:29 27.93588 -15.38875 86 ft 3 kts 289°
2026-05-05 07:29 27.93585 -15.38855 84 ft 3 kts 253°
2026-05-05 07:30 27.93594 -15.38838 87 ft 3 kts 211°
2026-05-05 07:30 27.93618 -15.38826 85 ft 0 kts 201°
2026-05-05 07:33 27.93610 -15.38830 84 ft 2 kts 201°
2026-05-05 07:33 27.93590 -15.38838 84 ft 5 kts 201°
2026-05-05 07:33 27.93544 -15.38859 84 ft 10 kts 201°
2026-05-05 07:34 27.93464 -15.38873 82 ft 13 kts 163°
2026-05-05 07:34 27.93423 -15.38788 69 ft 14 kts 114°
2026-05-05 07:34 27.93337 -15.38783 70 ft 15 kts 204°
2026-05-05 07:34 27.93241 -15.38830 70 ft 17 kts 204°
2026-05-05 07:35 27.93116 -15.38885 72 ft 21 kts 202°
2026-05-05 07:35 27.92982 -15.38948 72 ft 21 kts 203°
2026-05-05 07:35 27.92851 -15.39007 82 ft 20 kts 201°
2026-05-05 07:35 27.92726 -15.39065 86 ft 19 kts 201°
2026-05-05 07:36 27.92602 -15.39117 91 ft 19 kts 202°
2026-05-05 07:36 27.92483 -15.39170 94 ft 18 kts 201°
2026-05-05 07:36 27.92367 -15.39219 97 ft 17 kts 200°
2026-05-05 07:36 27.92256 -15.39269 100 ft 17 kts 202°
2026-05-05 07:37 27.92149 -15.39317 96 ft 17 kts 201°
2026-05-05 07:37 27.92035 -15.39369 94 ft 19 kts 202°
2026-05-05 07:37 27.91937 -15.39396 91 ft 12 kts 163°
2026-05-05 07:37 27.91897 -15.39319 88 ft 11 kts 98°
2026-05-05 07:38 27.91875 -15.39234 86 ft 12 kts 110°
2026-05-05 07:38 27.91844 -15.39138 84 ft 14 kts 110°
2026-05-05 07:38 27.91832 -15.39036 75 ft 13 kts 60°
2026-05-05 07:38 27.91906 -15.38997 71 ft 10 kts 20°
2026-05-05 07:39 27.91970 -15.38969 73 ft 11 kts 20°
2026-05-05 07:39 27.92051 -15.38935 67 ft 15 kts 21°
2026-05-05 07:39 27.92228 -15.38858 59 ft 48 kts 21°
2026-05-05 07:39 27.92776 -15.38618 47 ft 119 kts 21°
2026-05-05 07:40 27.93719 -15.38202 137 ft 165 kts 20°
2026-05-05 07:40 27.94839 -15.37718 764 ft 175 kts 20°
2026-05-05 07:40 27.95924 -15.37248 1735 ft 165 kts 22°
2026-05-05 07:40 27.97009 -15.36728 2415 ft 178 kts 24°
2026-05-05 07:41 27.98244 -15.36113 2717 ft 206 kts 25°
2026-05-05 07:41 27.99629 -15.35422 2992 ft 228 kts 25°
2026-05-05 07:41 28.01154 -15.34813 3504 ft 237 kts 17°
2026-05-05 07:41 28.02760 -15.34302 3955 ft 242 kts 16°
2026-05-05 07:42 28.04463 -15.33775 4009 ft 263 kts 18°
2026-05-05 07:42 28.06203 -15.33071 4012 ft 267 kts 21°
2026-05-05 07:42 28.07911 -15.32307 4022 ft 267 kts 22°
2026-05-05 07:42 28.09633 -15.31539 4023 ft 265 kts 21°
2026-05-05 07:43 28.11351 -15.30783 4021 ft 264 kts 21°
2026-05-05 07:43 28.13063 -15.30034 4027 ft 263 kts 22°
2026-05-05 07:43 28.14582 -15.28910 4028 ft 264 kts 47°
2026-05-05 07:43 28.15703 -15.27226 4385 ft 272 kts 56°
2026-05-05 07:44 28.16758 -15.25421 5214 ft 277 kts 57°
2026-05-05 07:44 28.17822 -15.23573 5992 ft 284 kts 57°
2026-05-05 07:44 28.18910 -15.21681 6792 ft 288 kts 57°
2026-05-05 07:44 28.20000 -15.19791 7540 ft 294 kts 56°
2026-05-05 07:45 28.21133 -15.17831 8250 ft 300 kts 56°
2026-05-05 07:45 28.22290 -15.15835 9000 ft 306 kts 56°
2026-05-05 07:45 28.23474 -15.13797 9738 ft 312 kts 56°
2026-05-05 07:45 28.24683 -15.11718 10374 ft 322 kts 56°
2026-05-05 07:46 28.25964 -15.09519 10585 ft 346 kts 56°
2026-05-05 07:46 28.27318 -15.07193 11035 ft 359 kts 56°
2026-05-05 07:46 28.28708 -15.04806 11684 ft 365 kts 56°
2026-05-05 07:46 28.30096 -15.02418 12337 ft 371 kts 56°
2026-05-05 07:47 28.31528 -14.99955 13007 ft 377 kts 56°
2026-05-05 07:47 28.32984 -14.97451 13635 ft 384 kts 56°
2026-05-05 07:47 28.34464 -14.94903 14240 ft 389 kts 56°
2026-05-05 07:47 28.35963 -14.92322 14850 ft 394 kts 56°
2026-05-05 07:48 28.37480 -14.89707 15478 ft 399 kts 56°
2026-05-05 07:48 28.39013 -14.87063 16099 ft 403 kts 56°
2026-05-05 07:48 28.40565 -14.84387 16700 ft 409 kts 56°
2026-05-05 07:48 28.42116 -14.81708 17276 ft 414 kts 56°
2026-05-05 07:49 28.43709 -14.78956 17868 ft 419 kts 56°
2026-05-05 07:49 28.45320 -14.76171 18435 ft 424 kts 56°
2026-05-05 07:49 28.46946 -14.73360 18966 ft 428 kts 56°
2026-05-05 07:49 28.48590 -14.70515 19482 ft 433 kts 56°
2026-05-05 07:50 28.50246 -14.67645 19998 ft 437 kts 56°
2026-05-05 07:50 28.51924 -14.64738 20507 ft 442 kts 56°
2026-05-05 07:50 28.53614 -14.61806 21010 ft 446 kts 56°
2026-05-05 07:50 28.55301 -14.58878 21502 ft 450 kts 56°
2026-05-05 07:51 28.57022 -14.55888 21984 ft 455 kts 56°
2026-05-05 07:51 28.58764 -14.52861 22460 ft 459 kts 56°
2026-05-05 07:51 28.60518 -14.49811 22936 ft 463 kts 56°
2026-05-05 07:51 28.62291 -14.46724 23423 ft 467 kts 56°
2026-05-05 07:52 28.64074 -14.43619 23838 ft 471 kts 56°
2026-05-05 07:52 28.65874 -14.40482 24245 ft 474 kts 56°
2026-05-05 07:52 28.67681 -14.37329 24670 ft 477 kts 56°
2026-05-05 07:52 28.69497 -14.34160 25085 ft 479 kts 56°
2026-05-05 07:53 28.71322 -14.30970 25480 ft 482 kts 56°
2026-05-05 07:53 28.73160 -14.27758 25865 ft 485 kts 56°
2026-05-05 07:53 28.74980 -14.24573 26241 ft 488 kts 55°
2026-05-05 07:53 28.76837 -14.21322 26637 ft 491 kts 55°
2026-05-05 07:54 28.78702 -14.18053 27014 ft 493 kts 55°
2026-05-05 07:54 28.80578 -14.14764 27380 ft 496 kts 55°
2026-05-05 07:54 28.82460 -14.11460 27741 ft 499 kts 55°
2026-05-05 07:54 28.84356 -14.08129 28104 ft 501 kts 55°
2026-05-05 07:55 28.86261 -14.04781 28463 ft 504 kts 55°
2026-05-05 07:55 28.88146 -14.01465 28799 ft 506 kts 55°
2026-05-05 07:55 28.90066 -13.98084 29140 ft 509 kts 54°
2026-05-05 07:55 28.91992 -13.94689 29481 ft 511 kts 54°
2026-05-05 07:56 28.93930 -13.91273 29812 ft 513 kts 54°
2026-05-05 07:56 28.95873 -13.87842 30130 ft 516 kts 54°
2026-05-05 07:56 28.97824 -13.84396 30394 ft 518 kts 54°
2026-05-05 07:56 28.99784 -13.80930 30647 ft 521 kts 54°
2026-05-05 07:57 29.01751 -13.77449 30900 ft 523 kts 54°
2026-05-05 07:57 29.03726 -13.73951 31146 ft 525 kts 54°
2026-05-05 07:57 29.05710 -13.70435 31384 ft 528 kts 54°
2026-05-05 07:57 29.07675 -13.66949 31610 ft 530 kts 54°
2026-05-05 07:58 29.09675 -13.63396 31827 ft 532 kts 54°
2026-05-05 07:58 29.11682 -13.59827 32049 ft 535 kts 54°
2026-05-05 07:58 29.13696 -13.56245 32307 ft 535 kts 54°
2026-05-05 07:58 29.15707 -13.52664 32626 ft 535 kts 54°
2026-05-05 07:59 29.17726 -13.49098 32964 ft 534 kts 53°
2026-05-05 07:59 29.19819 -13.45586 33239 ft 534 kts 52°
2026-05-05 07:59 29.21964 -13.42109 33490 ft 535 kts 51°
2026-05-05 07:59 29.24124 -13.38646 33758 ft 535 kts 51°
2026-05-05 08:00 29.26256 -13.35223 34036 ft 535 kts 51°
2026-05-05 08:00 29.28409 -13.31743 34254 ft 536 kts 51°
2026-05-05 08:00 29.30554 -13.28249 34481 ft 536 kts 51°
2026-05-05 08:00 29.32691 -13.24747 34726 ft 536 kts 51°
2026-05-05 08:01 29.34820 -13.21246 34964 ft 536 kts 52°
2026-05-05 08:01 29.36950 -13.17736 35158 ft 537 kts 52°
2026-05-05 08:01 29.39083 -13.14220 35371 ft 537 kts 52°
2026-05-05 08:01 29.41185 -13.10753 35605 ft 536 kts 52°
2026-05-05 08:02 29.43310 -13.07248 35829 ft 536 kts 51°
2026-05-05 08:02 29.45440 -13.03731 36023 ft 537 kts 52°
2026-05-05 08:02 29.47570 -13.00213 36220 ft 537 kts 52°
2026-05-05 08:02 29.49697 -12.96697 36436 ft 537 kts 52°
2026-05-05 08:03 29.51825 -12.93177 36623 ft 537 kts 52°
2026-05-05 08:03 29.53954 -12.89650 36796 ft 538 kts 52°
2026-05-05 08:03 29.56086 -12.86118 36980 ft 538 kts 52°
2026-05-05 08:03 29.58213 -12.82589 37195 ft 537 kts 52°
2026-05-05 08:04 29.60337 -12.79061 37403 ft 537 kts 52°
2026-05-05 08:04 29.62432 -12.75579 37597 ft 537 kts 52°
2026-05-05 08:04 29.64555 -12.72047 37767 ft 537 kts 52°
2026-05-05 08:04 29.66676 -12.68517 37931 ft 537 kts 52°
2026-05-05 08:05 29.68799 -12.64978 38051 ft 538 kts 52°
2026-05-05 08:05 29.70928 -12.61430 38045 ft 540 kts 52°
2026-05-05 08:05 29.75181 -12.54316 38047 ft 538 kts 52°
2026-05-05 08:06 29.79356 -12.47269 38044 ft 535 kts 52°
2026-05-05 08:06 29.83531 -12.40201 38048 ft 533 kts 52°
2026-05-05 08:07 29.87692 -12.33155 38046 ft 531 kts 52°
2026-05-05 08:07 29.91835 -12.26129 38048 ft 530 kts 52°
2026-05-05 08:08 29.95943 -12.19152 38051 ft 530 kts 52°
2026-05-05 08:08 30.00082 -12.12118 38052 ft 530 kts 51°
2026-05-05 08:09 30.04889 -12.05798 38071 ft 521 kts 38°
2026-05-05 08:09 30.10150 -12.00031 38062 ft 522 kts 37°
2026-05-05 08:10 30.15406 -11.94288 38053 ft 524 kts 38°
2026-05-05 08:10 30.20671 -11.88435 38050 ft 526 kts 38°
2026-05-05 08:11 30.25926 -11.82531 38045 ft 528 kts 38°
2026-05-05 08:11 30.31188 -11.76600 38045 ft 528 kts 38°
2026-05-05 08:12 30.36457 -11.70657 38048 ft 529 kts 38°
2026-05-05 08:12 30.41686 -11.64755 38043 ft 528 kts 38°
2026-05-05 08:13 30.46940 -11.58814 38045 ft 527 kts 38°
2026-05-05 08:13 30.52180 -11.52882 38046 ft 526 kts 38°
2026-05-05 08:14 30.57403 -11.46959 38044 ft 524 kts 38°
2026-05-05 08:14 30.62567 -11.41093 38048 ft 522 kts 38°
2026-05-05 08:15 30.67749 -11.35198 38047 ft 520 kts 38°
2026-05-05 08:15 30.72908 -11.29321 38046 ft 519 kts 38°
2026-05-05 08:16 30.78048 -11.23455 38045 ft 517 kts 38°
2026-05-05 08:16 30.83170 -11.17602 38045 ft 516 kts 38°
2026-05-05 08:17 30.88246 -11.11791 38044 ft 515 kts 39°
2026-05-05 08:17 30.93343 -11.05947 38047 ft 514 kts 39°
2026-05-05 08:18 30.98433 -11.00102 38049 ft 514 kts 39°
2026-05-05 08:18 31.03521 -10.94250 38047 ft 514 kts 39°
2026-05-05 08:19 31.08604 -10.88395 38046 ft 514 kts 39°
2026-05-05 08:19 31.13656 -10.82565 38044 ft 514 kts 39°
2026-05-05 08:20 31.18737 -10.76694 38043 ft 514 kts 39°
2026-05-05 08:20 31.23820 -10.70810 38045 ft 514 kts 39°
2026-05-05 08:21 31.28901 -10.64919 38045 ft 515 kts 39°
2026-05-05 08:21 31.33946 -10.59060 38053 ft 515 kts 39°
2026-05-05 08:22 31.39029 -10.53148 38052 ft 515 kts 39°
2026-05-05 08:22 31.44106 -10.47233 38050 ft 515 kts 39°
2026-05-05 08:23 31.49183 -10.41308 38050 ft 515 kts 39°
2026-05-05 08:23 31.54255 -10.35381 38054 ft 515 kts 39°
2026-05-05 08:24 31.59287 -10.29489 38055 ft 514 kts 39°
2026-05-05 08:24 31.64342 -10.23561 38060 ft 514 kts 40°
2026-05-05 08:25 31.69395 -10.17626 38060 ft 513 kts 40°
2026-05-05 08:25 31.74440 -10.11691 38060 ft 513 kts 40°
2026-05-05 08:26 31.79439 -10.05800 38057 ft 512 kts 40°
2026-05-05 08:26 31.84464 -9.99870 38062 ft 511 kts 40°
2026-05-05 08:27 31.89477 -9.93943 38058 ft 511 kts 40°
2026-05-05 08:27 31.94480 -9.88019 38067 ft 510 kts 40°
2026-05-05 08:28 31.99477 -9.82092 38061 ft 509 kts 40°
2026-05-05 08:28 32.04427 -9.76211 38066 ft 508 kts 40°
2026-05-05 08:29 32.09399 -9.70294 38064 ft 508 kts 40°
2026-05-05 08:30 32.16844 -9.61417 38071 ft 507 kts 40°
2026-05-05 08:30 32.21795 -9.55502 38074 ft 506 kts 40°
2026-05-05 08:31 32.26704 -9.49627 38071 ft 506 kts 40°
2026-05-05 08:31 32.31638 -9.43712 38076 ft 505 kts 40°
2026-05-05 08:32 32.36562 -9.37799 38077 ft 504 kts 40°
2026-05-05 08:32 32.41474 -9.31891 38079 ft 503 kts 41°
2026-05-05 08:33 32.46344 -9.26023 38074 ft 503 kts 41°
2026-05-05 08:33 32.51238 -9.20118 38084 ft 502 kts 41°
2026-05-05 08:34 32.56124 -9.14212 38088 ft 501 kts 41°
2026-05-05 08:34 32.60967 -9.08349 38084 ft 501 kts 41°
2026-05-05 08:35 32.65836 -9.02444 38079 ft 500 kts 41°
2026-05-05 08:35 32.70696 -8.96541 38079 ft 499 kts 41°
2026-05-05 08:36 32.75540 -8.90646 38082 ft 498 kts 41°
2026-05-05 08:36 32.80375 -8.84753 38079 ft 497 kts 41°
2026-05-05 08:37 32.84380 -8.79865 38084 ft 496 kts 41°
2026-05-05 08:37 32.89965 -8.73037 38082 ft 495 kts 41°
2026-05-05 08:38 32.94756 -8.67168 38085 ft 494 kts 41°
2026-05-05 08:38 32.98734 -8.62288 38080 ft 494 kts 41°
2026-05-05 08:39 33.04319 -8.55426 38082 ft 493 kts 41°
2026-05-05 08:39 33.09060 -8.49589 38083 ft 493 kts 41°
2026-05-05 08:40 33.13055 -8.44663 38087 ft 493 kts 41°
2026-05-05 08:40 33.17799 -8.38808 38082 ft 494 kts 41°
2026-05-05 08:40 33.21234 -8.35235 38067 ft 486 kts 28°
2026-05-05 08:41 33.23099 -8.33773 38094 ft 483 kts 26°
2026-05-05 08:41 33.29742 -8.28871 38083 ft 483 kts 25°
2026-05-05 08:42 33.34540 -8.25345 38086 ft 484 kts 26°
2026-05-05 08:42 33.40215 -8.21105 38080 ft 485 kts 26°
2026-05-05 08:43 33.45920 -8.16795 38082 ft 485 kts 26°
2026-05-05 08:43 33.51615 -8.12476 38083 ft 484 kts 27°
2026-05-05 08:44 33.57307 -8.08155 38085 ft 484 kts 27°
2026-05-05 08:44 33.62955 -8.03863 38085 ft 484 kts 27°
2026-05-05 08:45 33.68635 -7.99541 38080 ft 483 kts 27°
2026-05-05 08:45 33.74302 -7.95222 38074 ft 482 kts 27°
2026-05-05 08:46 33.79967 -7.90898 38085 ft 482 kts 27°
2026-05-05 08:46 33.85622 -7.86575 38097 ft 481 kts 27°
2026-05-05 08:47 33.91234 -7.82277 38095 ft 481 kts 27°
2026-05-05 08:47 33.96876 -7.77950 38096 ft 481 kts 27°
2026-05-05 08:48 34.02514 -7.73619 38094 ft 480 kts 27°
2026-05-05 08:48 34.08146 -7.69286 38099 ft 480 kts 27°
2026-05-05 08:49 34.13734 -7.64980 38098 ft 480 kts 27°
2026-05-05 08:49 34.19354 -7.60642 38095 ft 479 kts 27°
2026-05-05 08:50 34.24970 -7.56300 38095 ft 479 kts 27°
2026-05-05 08:50 34.30586 -7.51951 38097 ft 479 kts 27°
2026-05-05 08:51 34.36197 -7.47598 38096 ft 479 kts 28°
2026-05-05 08:51 34.41768 -7.43271 38095 ft 479 kts 28°
2026-05-05 08:52 34.47369 -7.38913 38097 ft 478 kts 28°
2026-05-05 08:52 34.52965 -7.34551 38094 ft 478 kts 28°
2026-05-05 08:53 34.58562 -7.30182 38099 ft 478 kts 28°
2026-05-05 08:53 34.64112 -7.25842 38095 ft 478 kts 28°
2026-05-05 08:54 34.69695 -7.21469 38095 ft 477 kts 28°
2026-05-05 08:54 34.75275 -7.17092 38098 ft 477 kts 28°
2026-05-05 08:55 34.80847 -7.12714 38103 ft 477 kts 28°
2026-05-05 08:55 34.86417 -7.08330 38093 ft 476 kts 28°
2026-05-05 08:56 34.91939 -7.03976 38082 ft 476 kts 28°
2026-05-05 08:56 34.97491 -6.99592 38095 ft 475 kts 28°
2026-05-05 08:57 35.03043 -6.95202 38088 ft 475 kts 28°
2026-05-05 08:57 35.08585 -6.90811 38083 ft 475 kts 28°
2026-05-05 08:58 35.14082 -6.86449 38087 ft 475 kts 28°
2026-05-05 08:58 35.19618 -6.82048 38084 ft 474 kts 28°
2026-05-05 08:59 35.25149 -6.77643 38084 ft 474 kts 28°
2026-05-05 08:59 35.30675 -6.73236 38078 ft 475 kts 29°
2026-05-05 09:00 35.35567 -6.67804 38078 ft 483 kts 48°
2026-05-05 09:00 35.39166 -6.60816 38080 ft 486 kts 59°
2026-05-05 09:01 35.42466 -6.53574 38066 ft 487 kts 58°
2026-05-05 09:01 35.45895 -6.46420 38062 ft 486 kts 56°
2026-05-05 09:02 35.49477 -6.39381 38068 ft 486 kts 56°
2026-05-05 09:02 35.53053 -6.32398 38059 ft 487 kts 56°
2026-05-05 09:03 35.56631 -6.25336 38054 ft 487 kts 56°
2026-05-05 09:03 35.60196 -6.18256 38056 ft 487 kts 56°
2026-05-05 09:04 35.63732 -6.11215 38060 ft 488 kts 56°
2026-05-05 09:04 35.67297 -6.04106 38052 ft 488 kts 56°
2026-05-05 09:05 35.70858 -5.96992 38051 ft 489 kts 56°
2026-05-05 09:05 35.74328 -5.89796 38047 ft 490 kts 61°
2026-05-05 09:06 35.77274 -5.82289 38052 ft 491 kts 64°
2026-05-05 09:06 35.80174 -5.74680 38048 ft 491 kts 63°
2026-05-05 09:07 35.83138 -5.67106 38052 ft 491 kts 63°
2026-05-05 09:07 35.86162 -5.59571 38041 ft 490 kts 62°
2026-05-05 09:08 35.89200 -5.52114 38050 ft 490 kts 62°
2026-05-05 09:08 35.92246 -5.44596 38050 ft 490 kts 62°
2026-05-05 09:09 35.95276 -5.37070 38045 ft 490 kts 62°
2026-05-05 09:09 35.98302 -5.29536 38049 ft 489 kts 62°
2026-05-05 09:10 36.01331 -5.22014 38044 ft 489 kts 62°
2026-05-05 09:10 36.04435 -5.14603 38047 ft 489 kts 61°
2026-05-05 09:11 36.07571 -5.07154 38034 ft 489 kts 61°
2026-05-05 09:11 36.10694 -4.99670 38037 ft 489 kts 61°
2026-05-05 09:12 36.13807 -4.92192 38028 ft 489 kts 60°
2026-05-05 09:12 36.17779 -4.85454 38032 ft 483 kts 43°
2026-05-05 09:13 36.22466 -4.79509 38026 ft 483 kts 42°
2026-05-05 09:13 36.27147 -4.73614 38025 ft 484 kts 42°
2026-05-05 09:14 36.31837 -4.67609 38021 ft 485 kts 43°
2026-05-05 09:14 36.36511 -4.61562 38020 ft 486 kts 43°
2026-05-05 09:15 36.41191 -4.55486 38016 ft 487 kts 43°
2026-05-05 09:15 36.45844 -4.49436 38021 ft 488 kts 43°
2026-05-05 09:16 36.50533 -4.43332 38017 ft 489 kts 43°
2026-05-05 09:16 36.55229 -4.37207 38021 ft 490 kts 43°
2026-05-05 09:17 36.59930 -4.31064 38016 ft 490 kts 43°
2026-05-05 09:17 36.64599 -4.24952 38015 ft 491 kts 43°
2026-05-05 09:18 36.69296 -4.18791 38011 ft 491 kts 43°
2026-05-05 09:18 36.74001 -4.12609 38014 ft 491 kts 43°
2026-05-05 09:19 36.78698 -4.06425 38008 ft 491 kts 43°
2026-05-05 09:19 36.83398 -4.00225 38010 ft 492 kts 43°
2026-05-05 09:20 36.88066 -3.94055 38012 ft 492 kts 43°
2026-05-05 09:20 36.92758 -3.87840 38041 ft 490 kts 43°
2026-05-05 09:21 36.97440 -3.81628 38047 ft 491 kts 43°
2026-05-05 09:21 37.02125 -3.75402 38041 ft 492 kts 43°
2026-05-05 09:22 37.06779 -3.69201 38054 ft 492 kts 43°
2026-05-05 09:22 37.11469 -3.62948 38049 ft 492 kts 43°
2026-05-05 09:23 37.16228 -3.56789 38057 ft 492 kts 42°
2026-05-05 09:23 37.21012 -3.50631 38048 ft 493 kts 42°
2026-05-05 09:24 37.25760 -3.44484 38043 ft 494 kts 42°
2026-05-05 09:24 37.30540 -3.38277 38014 ft 494 kts 42°
2026-05-05 09:25 37.35311 -3.32073 38017 ft 494 kts 42°
2026-05-05 09:25 37.40077 -3.25863 38008 ft 494 kts 42°
2026-05-05 09:26 37.44838 -3.19648 38017 ft 493 kts 42°
2026-05-05 09:26 37.49565 -3.13466 38007 ft 493 kts 42°
2026-05-05 09:27 37.54310 -3.07247 38024 ft 493 kts 43°
2026-05-05 09:27 37.59062 -3.01011 38010 ft 493 kts 43°
2026-05-05 09:28 37.63824 -2.94766 38018 ft 494 kts 43°
2026-05-05 09:28 37.68582 -2.88516 38021 ft 494 kts 43°
2026-05-05 09:29 37.73315 -2.82286 38015 ft 495 kts 43°
2026-05-05 09:29 37.78081 -2.75993 38025 ft 496 kts 43°
2026-05-05 09:30 37.82845 -2.69669 38012 ft 497 kts 43°
2026-05-05 09:30 37.87614 -2.63324 38007 ft 498 kts 43°
2026-05-05 09:31 37.92357 -2.57003 37994 ft 499 kts 43°
2026-05-05 09:31 37.94765 -2.53791 37456 ft 505 kts 43°
2026-05-05 09:31 37.97178 -2.50569 36945 ft 503 kts 43°
2026-05-05 09:31 37.99586 -2.47350 36327 ft 503 kts 43°
2026-05-05 09:32 38.01987 -2.44143 35896 ft 499 kts 43°
2026-05-05 09:32 38.04369 -2.40957 35454 ft 496 kts 43°
2026-05-05 09:32 38.06734 -2.37793 35030 ft 493 kts 43°
2026-05-05 09:32 38.09086 -2.34642 34610 ft 490 kts 43°
2026-05-05 09:33 38.11415 -2.31518 34222 ft 486 kts 43°
2026-05-05 09:33 38.13734 -2.28406 33775 ft 483 kts 43°
2026-05-05 09:33 38.16038 -2.25310 33337 ft 480 kts 43°
2026-05-05 09:33 38.18350 -2.22367 32907 ft 473 kts 35°
2026-05-05 09:34 38.20984 -2.19955 32527 ft 462 kts 24°
2026-05-05 09:34 38.23811 -2.18123 32084 ft 452 kts 15°